Rantoul, IL

8:50 AM CDT on August 27, 2016 (GMT -0500)
Rantoul

Weather History for KTIP - November, 2012

Change the Weather History Date:

Wednesday, November 7, 2012

  Actual Average (KCMI) Record (KCMI)
Temperature  
Mean Temperature 42 °F 46 °F  
Max Temperature 45 °F 56 °F 72 °F (2001)
Min Temperature 40 °F 36 °F 19 °F (2007)
Degree Days  
Heating Degree Days 22 19  
Month to date heating degree days 126  
Since 1 July heating degree days 587  
Cooling Degree Days 0 0  
Month to date cooling degree days 0  
Year to date cooling degree days 944  
Moisture  
Dew Point 41 °F    
Average Humidity 91    
Maximum Humidity 100    
Minimum Humidity 80    
Precipitation  
Precipitation 0.03 in 0.11 in 0.44 in (2011)
Month to date precipitation 0.79  
Year to date precipitation 34.49  
Sea Level Pressure  
Sea Level Pressure 30.04 in    
Wind  
Wind Speed 5 mph (NNW)    
Max Wind Speed 8 mph    
Max Gust Speed -    
Visibility 5 miles    
Events Fog    
T = Trace of Precipitation, MM = Missing Value Source: NWS Daily Summary

Daily Weather History Graph

Daily Weather History Graph

Search for Another Location

Airport or City:

Trip Planner

Search our weather history database for the weather conditions in past years. The results will help you decide how hot, cold, wet, or windy it might be!

Date:

Astronomy

Nov. 07, 2012 Rise Set
Actual Time 6:29 AM CST 4:42 PM CST
Civil Twilight 6:01 AM CST 5:11 PM CST
Nautical Twilight 5:28 AM CST 5:43 PM CST
Astronomical Twilight 4:56 AM CST 6:15 PM CST
Moon No Moon Rise 12:52 PM CST (11/7)
Length of Visible Light 11h 10m
Length of Day
10h 12m
Last Quarter, 43% of the Moon is Illuminated
Nov 7
Last Quarter
Nov 13
New
Nov 20
First Quarter
Nov 28
Full
Dec 6
Last Quarter

Hourly Weather History & Observations

Time (CST) Temp. Windchill Dew Point Humidity Pressure Visibility Wind Dir Wind Speed Gust Speed Precip Events Conditions
12:15 AM 42.8 °F 41.1 °F 42.4 °F 99% 29.88 in 1.5 mi South 3.5 mph - N/A   Overcast
12:35 AM 43.0 °F 40.3 °F 42.8 °F 99% 29.88 in 1.8 mi SSW 4.6 mph - N/A   Overcast
12:55 AM 43.2 °F 40.5 °F 42.8 °F 99% 29.88 in 2.0 mi West 4.6 mph - N/A   Overcast
1:15 AM 43.0 °F 39.5 °F 42.8 °F 99% 29.88 in 3.0 mi West 5.8 mph - N/A   Mist
1:35 AM 42.8 °F 39.3 °F 42.3 °F 98% 29.88 in 3.0 mi West 5.8 mph - N/A   Mist
1:55 AM 42.6 °F 38.4 °F 41.9 °F 97% 29.88 in 4.0 mi WNW 6.9 mph - N/A   Scattered Clouds
2:15 AM 42.1 °F 39.2 °F 41.4 °F 97% 29.88 in 4.0 mi West 4.6 mph - N/A   Mostly Cloudy
2:35 AM 41.0 °F 37.1 °F 41.0 °F 100% 29.89 in 3.0 mi West 5.8 mph - N/A   Mist
2:55 AM 41.4 °F 39.4 °F 41.0 °F 99% 29.89 in 3.0 mi NW 3.5 mph - N/A   Overcast
3:15 AM 41.0 °F 39.0 °F 40.3 °F 97% 29.89 in 2.5 mi NW 3.5 mph - N/A   Mist
3:35 AM 40.5 °F 38.4 °F 40.1 °F 99% 29.89 in 2.5 mi WNW 3.5 mph - N/A   Overcast
3:55 AM 40.5 °F 38.4 °F 40.1 °F 99% 29.90 in 2.5 mi WNW 3.5 mph - N/A   Mist
4:15 AM 40.6 °F 37.5 °F 40.1 °F 98% 29.90 in 4.0 mi NW 4.6 mph - N/A   Clear
4:35 AM 40.8 °F 36.2 °F 40.1 °F 97% 29.91 in 4.0 mi NNW 6.9 mph - N/A   Clear
4:55 AM 41.0 °F 36.4 °F 40.1 °F 97% 29.91 in 4.0 mi NW 6.9 mph - N/A   Clear
5:15 AM 41.4 °F 38.4 °F 40.5 °F 97% 29.91 in 5.0 mi NW 4.6 mph - N/A   Scattered Clouds
5:35 AM 41.5 °F 38.6 °F 40.5 °F 96% 29.92 in 4.0 mi NNW 4.6 mph - N/A   Scattered Clouds
5:55 AM 41.9 °F 39.0 °F 40.6 °F 95% 29.93 in 4.0 mi NW 4.6 mph - N/A   Scattered Clouds
6:15 AM 41.5 °F 38.6 °F 40.6 °F 97% 29.94 in 4.0 mi NW 4.6 mph - N/A   Mostly Cloudy
6:35 AM 41.9 °F 38.2 °F 41.2 °F 97% 29.94 in 3.0 mi NNW 5.8 mph - N/A   Overcast
6:55 AM 42.1 °F 37.7 °F 41.5 °F 98% 29.96 in 1.2 mi NNW 6.9 mph - N/A   Overcast
7:15 AM 42.1 °F 37.7 °F 41.9 °F 99% 29.97 in 0.8 mi NNW 6.9 mph - N/A   Overcast
7:35 AM 42.1 °F 39.2 °F 41.9 °F 99% 29.98 in 0.5 mi North 4.6 mph - N/A Fog Fog
7:55 AM 42.1 °F 37.7 °F 41.9 °F 99% 29.99 in 1.8 mi NE 6.9 mph - N/A   Overcast
8:15 AM 42.3 °F 37.9 °F 41.9 °F 99% 30.00 in 2.0 mi NE 6.9 mph - N/A   Overcast
8:35 AM 42.4 °F 39.6 °F 41.9 °F 98% 30.01 in 1.5 mi NE 4.6 mph - N/A   Overcast
8:55 AM 42.4 °F 38.1 °F 41.9 °F 98% 30.02 in 1.8 mi NE 6.9 mph - N/A   Overcast
9:15 AM 43.0 °F 39.5 °F 41.9 °F 96% 30.03 in 2.0 mi NE 5.8 mph - N/A   Overcast
9:35 AM 43.7 °F 39.7 °F 41.9 °F 93% 30.04 in 3.0 mi NE 6.9 mph - N/A   Overcast
9:55 AM 44.1 °F 39.5 °F 42.1 °F 93% 30.05 in 3.0 mi NE 8.1 mph - N/A   Mist
10:15 AM 44.1 °F 39.5 °F 41.9 °F 92% 30.05 in 4.0 mi ENE 8.1 mph - N/A   Clear
10:35 AM 44.1 °F 39.5 °F 41.9 °F 92% 30.06 in 3.0 mi ENE 8.1 mph - N/A   Mist
10:55 AM 44.6 °F 40.2 °F 41.5 °F 89% 30.06 in 4.0 mi NE 8.1 mph - N/A   Clear
11:15 AM - - - N/A% - - North - - N/A   Unknown
11:35 AM 44.6 °F 41.4 °F 40.3 °F 85% 30.07 in - NNE 5.8 mph - 0.03 in   Unknown
11:55 AM 44.2 °F 40.3 °F 40.5 °F 87% 30.06 in 7.0 mi NNE 6.9 mph - 0.03 in   Mostly Cloudy
12:15 PM 44.6 °F 40.2 °F 40.1 °F 84% 30.06 in 7.0 mi North 8.1 mph - N/A   Mostly Cloudy
12:35 PM 44.6 °F 42.2 °F 38.7 °F 80% 30.06 in 10.0 mi NW 4.6 mph - N/A   Scattered Clouds
12:55 PM 45.0 °F 41.8 °F 39.6 °F 81% 30.06 in 10.0 mi North 5.8 mph - N/A   Scattered Clouds
1:15 PM 45.0 °F 41.2 °F 39.7 °F 82% 30.06 in 10.0 mi North 6.9 mph - N/A   Mostly Cloudy
1:35 PM 45.5 °F 41.8 °F 40.1 °F 81% 30.07 in 10.0 mi NNW 6.9 mph - N/A   Mostly Cloudy
1:55 PM 45.0 °F 41.2 °F 40.1 °F 83% 30.07 in 7.0 mi NNW 6.9 mph - N/A   Mostly Cloudy
1:56 PM 44.6 °F 40.2 °F 39.2 °F 81% 30.07 in 7.0 mi NNW 8.1 mph - N/A   Mostly Cloudy
2:15 PM 45.1 °F 42.8 °F 40.3 °F 83% 30.08 in 7.0 mi North 4.6 mph - N/A   Mostly Cloudy
2:35 PM 45.1 °F 42.0 °F 39.6 °F 81% 30.09 in 10.0 mi NW 5.8 mph - N/A   Mostly Cloudy
2:55 PM 45.0 °F 41.8 °F 39.4 °F 81% 30.10 in 7.0 mi NW 5.8 mph - N/A   Mostly Cloudy
3:15 PM 45.0 °F 40.6 °F 40.1 °F 83% 30.10 in 7.0 mi NW 8.1 mph - N/A   Scattered Clouds
3:35 PM 45.0 °F 41.2 °F 40.1 °F 83% 30.10 in 7.0 mi NW 6.9 mph - N/A   Clear
3:55 PM 44.6 °F 41.4 °F 39.7 °F 83% 30.10 in 7.0 mi NW 5.8 mph - N/A   Scattered Clouds
4:15 PM 44.6 °F 41.4 °F 39.4 °F 82% 30.10 in 7.0 mi NW 5.8 mph - N/A   Mostly Cloudy
4:35 PM 43.2 °F 39.7 °F 38.8 °F 85% 30.11 in 7.0 mi NW 5.8 mph - N/A   Scattered Clouds
4:55 PM 43.3 °F 40.7 °F 39.4 °F 86% 30.11 in 7.0 mi NW 4.6 mph - N/A   Mostly Cloudy
5:15 PM 43.7 °F 40.3 °F 39.6 °F 85% 30.12 in 10.0 mi NW 5.8 mph - N/A   Scattered Clouds
5:35 PM 43.9 °F 41.3 °F 40.1 °F 87% 30.13 in 7.0 mi NW 4.6 mph - N/A   Scattered Clouds
5:55 PM 43.9 °F 42.3 °F 39.9 °F 86% 30.14 in 7.0 mi NNW 3.5 mph - N/A   Mostly Cloudy
6:15 PM 43.7 °F 41.1 °F 40.1 °F 87% 30.14 in 7.0 mi NW 4.6 mph - N/A   Mostly Cloudy
6:35 PM 43.7 °F 42.1 °F 40.1 °F 87% 30.15 in 7.0 mi NW 3.5 mph - N/A   Scattered Clouds
6:55 PM 43.7 °F - 39.6 °F 85% 30.15 in 7.0 mi Calm Calm - N/A   Mostly Cloudy
7:15 PM 43.9 °F 42.3 °F 39.0 °F 83% 30.15 in 7.0 mi NNW 3.5 mph - N/A   Mostly Cloudy
7:35 PM 44.2 °F 41.8 °F 38.5 °F 80% 30.15 in 10.0 mi North 4.6 mph - N/A   Mostly Cloudy
7:55 PM 43.7 °F - 39.2 °F 84% 30.16 in 7.0 mi Calm Calm - N/A   Mostly Cloudy
8:15 PM 43.2 °F 41.5 °F 39.9 °F 88% 30.16 in 7.0 mi WNW 3.5 mph - N/A   Scattered Clouds
8:35 PM 43.3 °F - 39.9 °F 88% 30.16 in 7.0 mi Calm Calm - N/A   Scattered Clouds
8:55 PM 43.0 °F - 39.9 °F 89% 30.17 in 7.0 mi Calm Calm - N/A   Mostly Cloudy
9:15 PM 42.8 °F 41.1 °F 40.1 °F 90% 30.17 in 7.0 mi WNW 3.5 mph - N/A   Overcast
9:35 PM 43.3 °F - 39.7 °F 87% 30.18 in 7.0 mi Calm Calm - N/A   Mostly Cloudy
9:55 PM 43.0 °F - 39.7 °F 88% 30.17 in 7.0 mi Calm Calm - N/A   Mostly Cloudy
10:15 PM 43.0 °F - 39.6 °F 88% 30.17 in 7.0 mi Calm Calm - N/A   Scattered Clouds
10:35 PM 43.2 °F - 39.6 °F 87% 30.17 in 7.0 mi Calm Calm - N/A   Scattered Clouds
10:55 PM 43.2 °F 41.5 °F 39.6 °F 87% 30.17 in 7.0 mi WNW 3.5 mph - N/A   Scattered Clouds
11:15 PM 43.0 °F - 39.9 °F 89% 30.18 in 7.0 mi Calm Calm - N/A   Scattered Clouds
11:35 PM 43.0 °F - 40.1 °F 90% 30.18 in 7.0 mi Calm Calm - N/A   Scattered Clouds
11:55 PM 42.8 °F - 40.3 °F 91% 30.18 in 5.0 mi Calm Calm - N/A   Scattered Clouds